sat.trackr.live / text

‹ back to catalog

STARLINK-32380

NORAD 61069 · 2024-164V

PAYLOAD ACTIVE UNKNOWN

§ Identity

Operator
Country
US
Launch date
2024-09-13
Launch site
AFWTR
Launch vehicle
Mass (kg)
RCS (m²)

Purposes: comms

External: N2YO · Heavens-Above · Gunter

§ Orbital elements

Epoch: 2026-09-21T06:58:15.408768Z

Period
94.01 min
Inclination
53.1583°
Eccentricity
0.0001050
Mean motion
15.31706403 rev/d
Perigee alt
470.0 km
Apogee alt
471.4 km
Semi-major
6,848.9 km
B*
3.7390e-5
RAAN
261.2475°
Arg perigee
89.3138°
Mean anomaly
270.7983°
Rev number
11,344

§ Raw data

STARLINK-323801 61069U 24164V   26264.29045612  .00000796  00000+0  37390-4 0  99952 61069  53.1583 261.2475 0001050  89.3138 270.7983 15.31706403113443

JSON: /api/v1/satellites/61069 · /tle

For live sub-satellite position, see the globe view (requires WebGL).

§ Visibility from observer

Set your observer location to see the next 7 days of passes ≥ 10°. The values pass through the URL so the page stays shareable.

No JS? Fill the form by hand. The geolocation button needs JavaScript.